This demonstration page uses our WeatherBlox Daily Observations layout. Learn more.

38.89511, -77.03637

Hourly Observations for September 30, 2017

Temp ( °F °C ) Dew Point ( °F °C ) Humidity (%) Winds ( mph kmh ) Pressure ( in mb ) Visibility ( mi km ) Precip ( " mm )
12:52 am 00:52 Mostly Cloudy 66 18.9 53 11.7 63 63 W 8 13 30.09 1019 10 16.09344 0 0
1:19 am 01:19 Mostly Cloudy 66 18.9 51 10.6 59 59 NNW 10 17 30.09 1019 10 16.09344 0 0
1:52 am 01:52 Cloudy 65 18.3 52 11.1 63 63 NNW 7 11 30.09 1019 10 16.09344 0 0
2:52 am 02:52 Cloudy 65 18.3 51 10.6 61 61 NNW 8 13 30.09 1019 10 16.09344 0 0
3:52 am 03:52 Mostly Cloudy 65 18.3 51 10.6 61 61 NW 17 28 30.09 1019 10 16.09344 0 0
4:52 am 04:52 Partly Cloudy 63 17.2 51 10.6 65 65 NW 13 20 30.12 1020 10 16.09344 0 0
5:52 am 05:52 Clear 62 16.7 49 9.4 62 62 W 5 7 30.12 1020 10 16.09344 0 0
6:52 am 06:52 Mostly Clear 60 15.6 48 8.9 65 65 NW 15 24 30.15 1021 10 16.09344 0 0
7:52 am 07:52 Mostly Sunny 59 15 48 8.9 67 67 NNW 10 17 30.18 1022 10 16.09344 0 0
8:52 am 08:52 Mostly Sunny 61 16.1 46 7.8 58 58 NW 18 30 30.21 1023 10 16.09344 0 0
9:52 am 09:52 Partly Cloudy 63 17.2 45 7.2 52 52 NNW 15 24 30.21 1023 10 16.09344 0 0
10:52 am 10:52 Partly Cloudy 66 18.9 46 7.8 49 49 NNW 18 30 30.24 1024 10 16.09344 0 0
11:52 am 11:52 Mostly Cloudy 67 19.4 45 7.2 45 45 NNW 22 35 30.24 1024 10 16.09344 0 0
12:52 pm 12:52 Mostly Cloudy 65 18.3 45 7.2 49 49 NNW 18 30 30.24 1024 10 16.09344 0 0
1:52 pm 13:52 Mostly Cloudy 66 18.9 44 6.7 45 45 NNW 18 30 30.24 1024 10 16.09344 0 0
2:52 pm 14:52 Mostly Cloudy 69 20.6 43 6.1 39 39 N 22 35 30.24 1024 10 16.09344 0 0
3:52 pm 15:52 Mostly Cloudy 69 20.6 42 5.6 38 38 N 17 28 30.24 1024 10 16.09344 0 0
4:52 pm 16:52 Mostly Cloudy 67 19.4 42 5.6 41 41 N 18 30 30.24 1024 10 16.09344 0 0
5:52 pm 17:52 Partly Cloudy 66 18.9 43 6.1 43 43 N 16 26 30.24 1024 10 16.09344 0 0
5:56 pm 17:56 Partly Cloudy 66 18.9 43 6.1 43 43 N 18 30 30.27 1025 10 16.09344 0 0
6:52 pm 18:52 Mostly Sunny 63 17.2 42 5.6 47 47 N 17 28 30.27 1025 10 16.09344 0 0
7:52 pm 19:52 Mostly Clear 62 16.7 43 6.1 50 50 N 17 28 30.3 1026 10 16.09344 0 0
8:52 pm 20:52 Mostly Clear 61 16.1 43 6.1 52 52 N 17 28 30.33 1027 10 16.09344 0 0
9:52 pm 21:52 Clear 60 15.6 44 6.7 56 56 N 12 19 30.33 1027 10 16.09344 0 0
10:52 pm 22:52 Clear 58 14.4 43 6.1 58 58 N 14 22 30.36 1028 10 16.09344 0 0
11:52 pm 23:52 Clear 58 14.4 43 6.1 58 58 NNE 15 24 30.36 1028 10 16.09344 0 0

Powered by AerisWeather